INSAT-1C 1 19330U 88063A 21055.11119862 -.00000116 00000-0 00000-0 0 9992 2 19330 13.8415 342.7628 0009043 72.0569 215.3150 1.00316127100893 EUTELSAT 1-F5 (ECS 5) 1 19331U 88063B 21055.88163753 -.00000014 00000-0 00000-0 0 9992 2 19331 15.5090 0.7187 0011960 81.4146 108.4766 0.98163428 95314 ARIANE 3 DEB 1 20127U 88063E 21055.37427304 -.00000030 00000-0 -18973-3 0 9996 2 20127 8.0531 326.9458 7157697 277.6677 13.4228 2.33625481273446 ARIANE 3 DEB 1 20488U 88063F 21056.43513743 -.00000008 00000-0 00000-0 0 9990 2 20488 7.2142 228.6190 4792601 342.2600 5.4740 4.96691324559388 ARIANE 3 DEB 1 22101U 88063G 21056.15968903 .00001491 00000-0 73179-3 0 9991 2 22101 7.7903 199.0094 4498883 58.0490 338.0126 6.33244697210578 ARIANE 3 DEB 1 26809U 88063J 21055.30571056 .00000134 00000-0 55706-3 0 9994 2 26809 6.8534 98.1083 6915904 23.8843 356.9189 2.67715865209430